Погода в Тулате

Россия / Алтайский край     51°18′38″N   83°25′29″E
темп.,
°C
ветер,
м/с
пор.,
м/с
влажн.,
%
обл.,
%
осадки,
мм/ч
давл.,
гПа
погр.,
м
11 апреля, вс
вс1101:00−5вюв22929 0.0 103429
04:00−7вюв22885 0.0 103428
07:00−7юв32865 0.0 103536
10:000всв34710 0.0 1033228
13:00+4всв23761 0.0 1032295
16:00+6св23730 0.0 1031389
19:00+3всв11947 0.0 103312
22:00−1юв22904 0.0 103618
12 апреля, пн
пн1201:00−2юв328012 0.0 103524
04:00−2юв227734 0.0 103419
07:00−1юв22725 0.0 103419
10:00+6в22566 0.0 1032134
13:00+10ссв124748 0.0 1030357
16:00+10ссз11587 0.0 1030337
19:00+6сз118351 0.0 103110
22:00+1ю22885 0.0 103312
13 апреля, вт
вт1301:00+1ю2287100 0.0 103112
04:000ююз118887 0.0 103110
07:000ююз1190100 0.0 103210
10:00+4сз1174100 0.0 1031247
13:00+5ссз1062100 0.0 1031402
16:00+4ссз216430 0.0 1033407
19:00+3ссз228378 0.0 1033346
22:00+2св228296 0.0 103556
14 апреля, ср
ср1401:00−2в11936 0.0 103617
04:00−2юв11957 0.0 103612
07:00−2юв11925 0.0 103615
10:00+3св225832 0.0 1035371
13:00+7ссв22455 0.0 1032671
16:00+9с22465 0.0 1030849
19:00+8ссз12595 0.0 1029119
22:00+3ю11745 0.0 102910
15 апреля, чт
чт1501:00+2ююв117669 0.0 102810
04:00+1ююв117755 0.0 102710
07:00+2юв117598 0.0 102610
10:00+7св115865 0.0 1023275
13:00+11с214264 0.0 1021689
16:00+12с21340 0.0 10201000
19:00+10ссз22450 0.0 101982
22:00+6ю11590 0.0 102010